Wetterdaten: Freitag, 09.07.2021
Datum Zeit Temp. I. Temp. A. Boden 5 cm Feuchte I. Feuchte A. Sonne Luftdruck Regen Wind
09.07.2021 00:32 23,9 C 16,4 C 14,6 C 68 % 81 % 33 % 1016 hPa 0,3 l/m 20,5 km/h (4 Bft)
09.07.2021 00:35 23,8 C 16,2 C 14,6 C 67 % 81 % 33 % 1016 hPa 0,0 l/m 26,2 km/h (4 Bft)
09.07.2021 00:38 23,8 C 16,1 C 14,5 C 67 % 81 % 33 % 1016 hPa 0,0 l/m 20,8 km/h (4 Bft)
09.07.2021 00:41 23,8 C 16,1 C 14,7 C 67 % 81 % 33 % 1016 hPa 0,0 l/m 18,6 km/h (3 Bft)
09.07.2021 00:44 23,8 C 16,1 C 14,9 C 67 % 81 % 33 % 1015 hPa 0,0 l/m 14,0 km/h (3 Bft)
09.07.2021 00:47 23,8 C 16,1 C 14,8 C 67 % 81 % 33 % 1015 hPa 0,0 l/m 14,8 km/h (3 Bft)
09.07.2021 00:50 23,9 C 16,0 C 14,8 C 68 % 81 % 33 % 1015 hPa 0,0 l/m 14,4 km/h (3 Bft)
09.07.2021 00:53 23,9 C 16,0 C 14,6 C 68 % 81 % 33 % 1015 hPa 0,0 l/m 13,8 km/h (3 Bft)
09.07.2021 00:56 23,9 C 16,0 C 14,6 C 67 % 81 % 33 % 1015 hPa 0,0 l/m 15,6 km/h (3 Bft)
09.07.2021 00:59 23,9 C 16,0 C 14,8 C 67 % 81 % 33 % 1015 hPa 0,3 l/m 15,6 km/h (3 Bft)
09.07.2021 01:02 23,9 C 16,0 C 14,5 C 67 % 81 % 33 % 1016 hPa 0,0 l/m 11,5 km/h (2 Bft)
09.07.2021 01:05 23,9 C 15,9 C 14,5 C 67 % 81 % 33 % 1016 hPa 0,0 l/m 18,3 km/h (3 Bft)
09.07.2021 01:08 23,9 C 15,9 C 14,6 C 67 % 81 % 33 % 1016 hPa 0,3 l/m 20,6 km/h (4 Bft)
09.07.2021 01:11 23,9 C 15,7 C 14,3 C 67 % 81 % 33 % 1016 hPa 0,0 l/m 16,6 km/h (3 Bft)
09.07.2021 01:14 23,9 C 15,6 C 14,1 C 67 % 81 % 33 % 1016 hPa 0,3 l/m 19,8 km/h (3 Bft)
09.07.2021 01:17 23,9 C 15,6 C 14,0 C 67 % 81 % 33 % 1016 hPa 0,3 l/m 14,6 km/h (3 Bft)
09.07.2021 01:20 23,9 C 15,5 C 14,1 C 67 % 81 % 33 % 1017 hPa 0,3 l/m 19,7 km/h (3 Bft)
09.07.2021 01:23 23,9 C 15,5 C 14,4 C 67 % 81 % 33 % 1017 hPa 0,0 l/m 11,8 km/h (2 Bft)
09.07.2021 01:26 23,9 C 15,5 C 14,2 C 67 % 81 % 33 % 1017 hPa 0,3 l/m 9,2 km/h (2 Bft)
09.07.2021 01:29 23,9 C 15,0 C 13,6 C 67 % 81 % 33 % 1016 hPa 1,4 l/m 10,8 km/h (2 Bft)
09.07.2021 01:32 23,9 C 15,0 C 13,6 C 67 % 81 % 33 % 1017 hPa 0,3 l/m 14,0 km/h (3 Bft)
09.07.2021 01:35 23,9 C 15,0 C 14,0 C 67 % 81 % 33 % 1017 hPa 0,0 l/m 9,5 km/h (2 Bft)
09.07.2021 01:38 23,9 C 15,0 C 13,7 C 67 % 81 % 33 % 1017 hPa 0,0 l/m 9,5 km/h (2 Bft)
09.07.2021 01:41 23,9 C 15,0 C 13,7 C 67 % 81 % 33 % 1017 hPa 0,3 l/m 14,1 km/h (3 Bft)
09.07.2021 01:44 23,9 C 15,0 C 14,0 C 67 % 81 % 33 % 1016 hPa 0,0 l/m 12,2 km/h (2 Bft)
09.07.2021 01:47 23,9 C 15,0 C 13,8 C 67 % 81 % 33 % 1016 hPa 0,3 l/m 7,7 km/h (2 Bft)
09.07.2021 01:50 23,9 C 15,0 C 13,7 C 67 % 81 % 33 % 1016 hPa 0,0 l/m 7,1 km/h (2 Bft)
09.07.2021 01:53 23,9 C 15,0 C 13,9 C 67 % 81 % 33 % 1016 hPa 0,3 l/m 10,1 km/h (2 Bft)
09.07.2021 01:56 23,9 C 14,9 C 13,7 C 67 % 81 % 33 % 1016 hPa 0,0 l/m 5,3 km/h (1 Bft)
09.07.2021 01:59 23,9 C 14,9 C 13,6 C 67 % 81 % 33 % 1016 hPa 0,3 l/m 3,3 km/h (1 Bft)
09.07.2021 02:02 23,9 C 15,0 C 13,7 C 67 % 81 % 33 % 1016 hPa 0,0 l/m 5,2 km/h (1 Bft)
09.07.2021 02:05 23,9 C 14,9 C 13,7 C 67 % 81 % 33 % 1015 hPa 0,3 l/m 3,0 km/h (1 Bft)
09.07.2021 02:08 23,9 C 14,9 C 13,6 C 67 % 81 % 33 % 1015 hPa 0,3 l/m 0,9 km/h (0 Bft)
09.07.2021 02:11 23,9 C 14,9 C 13,9 C 67 % 81 % 33 % 1015 hPa 0,3 l/m 0,3 km/h (0 Bft)
09.07.2021 02:14 23,9 C 15,0 C 13,7 C 67 % 81 % 33 % 1015 hPa 0,0 l/m 6,1 km/h (2 Bft)
09.07.2021 02:17 23,8 C 15,0 C 13,5 C 67 % 81 % 33 % 1015 hPa 0,3 l/m 9,0 km/h (2 Bft)
09.07.2021 02:20 23,9 C 15,0 C 13,6 C 67 % 81 % 33 % 1015 hPa 0,3 l/m 4,3 km/h (1 Bft)
09.07.2021 02:23 23,9 C 15,0 C 13,6 C 67 % 81 % 33 % 1014 hPa 0,7 l/m 0,0 km/h (0 Bft)
09.07.2021 02:26 23,9 C 15,0 C 13,6 C 67 % 81 % 33 % 1014 hPa 0,3 l/m 0,1 km/h (0 Bft)
09.07.2021 02:29 23,8 C 14,9 C 13,7 C 67 % 81 % 33 % 1013 hPa 0,3 l/m 0,4 km/h (0 Bft)
09.07.2021 02:32 23,9 C 14,8 C 13,7 C 67 % 81 % 33 % 1013 hPa 0,0 l/m 0,1 km/h (0 Bft)
09.07.2021 02:35 23,8 C 14,8 C 13,6 C 67 % 81 % 33 % 1013 hPa 0,0 l/m 5,1 km/h (1 Bft)
09.07.2021 02:38 23,9 C 14,8 C 13,6 C 67 % 81 % 33 % 1013 hPa 0,3 l/m 4,0 km/h (1 Bft)
09.07.2021 02:41 23,9 C 14,8 C 13,7 C 67 % 81 % 33 % 1014 hPa 0,0 l/m 0,0 km/h (0 Bft)
09.07.2021 02:44 23,9 C 14,8 C 13,6 C 67 % 81 % 33 % 1014 hPa 0,0 l/m 0,1 km/h (0 Bft)
09.07.2021 02:47 23,9 C 14,8 C 13,6 C 67 % 81 % 33 % 1014 hPa 0,0 l/m 0,3 km/h (0 Bft)
09.07.2021 02:50 23,9 C 14,8 C 13,6 C 67 % 81 % 33 % 1014 hPa 0,0 l/m 1,0 km/h (0 Bft)
09.07.2021 02:53 23,9 C 14,8 C 13,6 C 67 % 81 % 33 % 1014 hPa 0,3 l/m 5,0 km/h (1 Bft)
09.07.2021 02:56 23,9 C 14,8 C 13,6 C 67 % 81 % 33 % 1014 hPa 0,0 l/m 4,5 km/h (1 Bft)
09.07.2021 02:59 23,9 C 14,8 C 13,8 C 67 % 81 % 33 % 1014 hPa 0,0 l/m 0,0 km/h (0 Bft)
09.07.2021 03:02 23,9 C 14,8 C 13,8 C 67 % 81 % 33 % 1014 hPa 0,0 l/m 0,1 km/h (0 Bft)
09.07.2021 03:05 23,9 C 14,8 C 13,5 C 67 % 81 % 33 % 1014 hPa 0,3 l/m 2,9 km/h (1 Bft)
09.07.2021 03:08 23,9 C 14,8 C 13,5 C 67 % 81 % 33 % 1014 hPa 0,0 l/m 7,9 km/h (2 Bft)
09.07.2021 03:11 23,9 C 14,8 C 13,6 C 67 % 81 % 33 % 1014 hPa 0,0 l/m 0,6 km/h (0 Bft)
09.07.2021 03:14 23,9 C 14,8 C 13,7 C 67 % 81 % 33 % 1014 hPa 0,0 l/m 1,0 km/h (0 Bft)
09.07.2021 03:17 23,9 C 14,8 C 13,8 C 67 % 81 % 33 % 1014 hPa 0,0 l/m 4,3 km/h (1 Bft)
09.07.2021 03:20 23,9 C 14,8 C 13,9 C 67 % 81 % 33 % 1014 hPa 0,0 l/m 4,3 km/h (1 Bft)
09.07.2021 03:23 23,9 C 14,8 C 13,9 C 67 % 81 % 33 % 1014 hPa 0,0 l/m 1,3 km/h (1 Bft)
09.07.2021 03:26 23,9 C 14,9 C 13,7 C 67 % 81 % 33 % 1014 hPa 0,0 l/m 3,8 km/h (1 Bft)
09.07.2021 03:29 23,9 C 14,8 C 13,6 C 67 % 81 % 33 % 1014 hPa 0,0 l/m 0,7 km/h (0 Bft)
09.07.2021 03:32 23,9 C 14,8 C 13,6 C 67 % 81 % 33 % 1014 hPa 0,0 l/m 0,7 km/h (0 Bft)
09.07.2021 03:35 23,9 C 14,8 C 13,6 C 67 % 81 % 33 % 1014 hPa 0,0 l/m 4,0 km/h (1 Bft)
09.07.2021 03:38 23,9 C 14,8 C 13,6 C 67 % 81 % 33 % 1014 hPa 0,0 l/m 2,2 km/h (1 Bft)
09.07.2021 03:41 23,9 C 14,8 C 13,5 C 67 % 81 % 33 % 1014 hPa 0,0 l/m 0,9 km/h (0 Bft)
09.07.2021 03:44 23,9 C 14,8 C 13,5 C 67 % 81 % 33 % 1014 hPa 0,0 l/m 5,7 km/h (1 Bft)
09.07.2021 03:47 23,9 C 14,8 C 13,6 C 67 % 81 % 33 % 1014 hPa 0,0 l/m 0,5 km/h (0 Bft)
09.07.2021 03:50 23,9 C 14,8 C 13,7 C 67 % 81 % 33 % 1014 hPa 0,0 l/m 5,5 km/h (1 Bft)
09.07.2021 03:53 23,9 C 14,8 C 14,0 C 67 % 81 % 33 % 1015 hPa 0,0 l/m 0,3 km/h (0 Bft)
09.07.2021 03:56 23,9 C 14,8 C 13,7 C 67 % 81 % 33 % 1015 hPa 0,0 l/m 0,3 km/h (0 Bft)
09.07.2021 03:59 23,9 C 14,8 C 13,7 C 67 % 81 % 33 % 1015 hPa 0,0 l/m 0,0 km/h (0 Bft)
09.07.2021 04:02 23,9 C 14,8 C 13,8 C 67 % 81 % 33 % 1015 hPa 0,0 l/m 0,2 km/h (0 Bft)
09.07.2021 04:05 23,9 C 14,8 C 13,9 C 67 % 81 % 33 % 1015 hPa 0,0 l/m 0,4 km/h (0 Bft)
09.07.2021 04:08 23,9 C 14,8 C 13,7 C 67 % 81 % 33 % 1014 hPa 0,0 l/m 0,9 km/h (0 Bft)
09.07.2021 04:11 23,9 C 14,8 C 13,6 C 67 % 81 % 33 % 1014 hPa 0,0 l/m 3,1 km/h (1 Bft)
09.07.2021 04:14 23,9 C 14,8 C 13,7 C 67 % 81 % 33 % 1015 hPa 0,0 l/m 0,0 km/h (0 Bft)
09.07.2021 04:17 23,9 C 14,8 C 13,7 C 67 % 81 % 33 % 1015 hPa 0,0 l/m 0,1 km/h (0 Bft)
09.07.2021 04:20 23,9 C 14,8 C 13,7 C 67 % 81 % 33 % 1015 hPa 0,0 l/m 0,3 km/h (0 Bft)
09.07.2021 04:23 23,9 C 14,8 C 13,8 C 67 % 81 % 33 % 1015 hPa 0,0 l/m 0,0 km/h (0 Bft)
09.07.2021 04:26 23,9 C 14,8 C 13,9 C 67 % 81 % 33 % 1014 hPa 0,0 l/m 0,0 km/h (0 Bft)
09.07.2021 04:29 23,9 C 14,8 C 13,6 C 67 % 81 % 33 % 1014 hPa 0,0 l/m 0,1 km/h (0 Bft)
09.07.2021 04:32 23,9 C 14,8 C 13,5 C 67 % 81 % 33 % 1014 hPa 0,0 l/m 0,1 km/h (0 Bft)
09.07.2021 04:35 23,9 C 14,8 C 13,7 C 67 % 81 % 33 % 1014 hPa 0,0 l/m 0,1 km/h (0 Bft)
09.07.2021 04:38 23,9 C 14,8 C 13,6 C 67 % 81 % 33 % 1014 hPa 0,0 l/m 0,5 km/h (0 Bft)
09.07.2021 04:41 23,9 C 14,8 C 13,5 C 67 % 81 % 33 % 1014 hPa 0,0 l/m 0,9 km/h (0 Bft)
09.07.2021 04:44 23,9 C 14,7 C 13,6 C 67 % 81 % 33 % 1014 hPa 0,0 l/m 0,0 km/h (0 Bft)
09.07.2021 04:46 23,9 C 14,7 C 13,5 C 67 % 81 % 33 % 1014 hPa 0,0 l/m 0,3 km/h (0 Bft)
09.07.2021 04:49 23,9 C 14,7 C 13,6 C 67 % 81 % 33 % 1014 hPa 0,0 l/m 0,1 km/h (0 Bft)
09.07.2021 04:52 23,9 C 14,7 C 13,5 C 67 % 81 % 33 % 1014 hPa 0,0 l/m 2,2 km/h (1 Bft)
09.07.2021 04:55 23,9 C 14,7 C 13,4 C 67 % 81 % 33 % 1014 hPa 0,0 l/m 4,3 km/h (1 Bft)
09.07.2021 04:58 23,9 C 14,7 C 13,6 C 67 % 81 % 33 % 1014 hPa 0,0 l/m 2,1 km/h (1 Bft)
09.07.2021 05:02 23,9 C 14,7 C 13,6 C 67 % 81 % 33 % 1014 hPa 0,0 l/m 0,0 km/h (0 Bft)
09.07.2021 05:05 23,9 C 14,7 C 13,5 C 67 % 81 % 33 % 1014 hPa 0,0 l/m 0,1 km/h (0 Bft)
09.07.2021 05:08 23,9 C 14,7 C 13,6 C 67 % 81 % 33 % 1014 hPa 0,0 l/m 0,4 km/h (0 Bft)
09.07.2021 05:11 23,9 C 14,7 C 13,5 C 67 % 81 % 33 % 1014 hPa 0,0 l/m 0,3 km/h (0 Bft)
09.07.2021 05:14 23,9 C 14,7 C 13,5 C 67 % 81 % 33 % 1014 hPa 0,0 l/m 1,9 km/h (1 Bft)
09.07.2021 05:17 23,9 C 14,7 C 13,4 C 67 % 81 % 33 % 1014 hPa 0,0 l/m 0,8 km/h (0 Bft)
09.07.2021 05:20 23,9 C 14,6 C 13,5 C 67 % 81 % 33 % 1014 hPa 0,0 l/m 0,3 km/h (0 Bft)
09.07.2021 05:23 23,9 C 14,6 C 13,7 C 67 % 81 % 33 % 1014 hPa 0,0 l/m 0,1 km/h (0 Bft)
09.07.2021 05:26 23,9 C 14,6 C 13,6 C 67 % 81 % 33 % 1014 hPa 0,0 l/m 0,1 km/h (0 Bft)
09.07.2021 05:29 23,9 C 14,7 C 13,5 C 67 % 81 % 33 % 1014 hPa 0,0 l/m 0,1 km/h (0 Bft)
09.07.2021 05:32 23,9 C 14,7 C 13,4 C 67 % 81 % 33 % 1014 hPa 0,0 l/m 0,1 km/h (0 Bft)
09.07.2021 05:35 23,9 C 14,7 C 13,5 C 67 % 81 % 33 % 1014 hPa 0,0 l/m 3,8 km/h (1 Bft)
09.07.2021 05:38 23,9 C 14,6 C 13,5 C 67 % 81 % 33 % 1014 hPa 0,0 l/m 0,4 km/h (0 Bft)
09.07.2021 05:41 23,9 C 14,6 C 13,5 C 67 % 81 % 33 % 1014 hPa 0,0 l/m 4,1 km/h (1 Bft)
09.07.2021 05:44 23,9 C 14,6 C 13,3 C 67 % 81 % 33 % 1014 hPa 0,0 l/m 0,2 km/h (0 Bft)
09.07.2021 05:47 23,9 C 14,6 C 13,4 C 67 % 81 % 33 % 1014 hPa 0,0 l/m 0,1 km/h (0 Bft)
09.07.2021 05:50 23,9 C 14,6 C 13,4 C 67 % 81 % 33 % 1014 hPa 0,0 l/m 0,6 km/h (0 Bft)
09.07.2021 05:53 23,9 C 14,5 C 13,6 C 67 % 81 % 33 % 1014 hPa 0,0 l/m 0,0 km/h (0 Bft)
09.07.2021 05:56 23,9 C 14,6 C 13,4 C 67 % 81 % 33 % 1014 hPa 0,0 l/m 0,1 km/h (0 Bft)
09.07.2021 05:59 23,9 C 14,5 C 13,6 C 67 % 81 % 33 % 1015 hPa 0,0 l/m 0,0 km/h (0 Bft)
09.07.2021 06:02 23,9 C 14,5 C 13,6 C 67 % 81 % 33 % 1015 hPa 0,0 l/m 0,0 km/h (0 Bft)
09.07.2021 06:05 23,9 C 14,5 C 13,9 C 67 % 81 % 33 % 1015 hPa 0,0 l/m 0,0 km/h (0 Bft)
09.07.2021 06:08 23,9 C 14,5 C 14,0 C 67 % 81 % 33 % 1015 hPa 0,0 l/m 0,0 km/h (0 Bft)
09.07.2021 06:11 23,9 C 14,6 C 14,0 C 67 % 81 % 33 % 1015 hPa 0,0 l/m 0,0 km/h (0 Bft)
09.07.2021 06:14 23,9 C 14,7 C 14,1 C 67 % 81 % 33 % 1015 hPa 0,0 l/m 0,0 km/h (0 Bft)
09.07.2021 06:17 23,9 C 14,8 C 14,2 C 67 % 81 % 33 % 1015 hPa 0,0 l/m 0,0 km/h (0 Bft)
09.07.2021 06:20 23,9 C 15,0 C 14,2 C 67 % 81 % 33 % 1015 hPa 0,0 l/m 0,0 km/h (0 Bft)
09.07.2021 06:23 23,8 C 15,5 C 14,4 C 67 % 81 % 33 % 1015 hPa 0,0 l/m 0,0 km/h (0 Bft)
09.07.2021 06:26 23,8 C 15,8 C 14,4 C 67 % 80 % 33 % 1015 hPa 0,0 l/m 1,8 km/h (1 Bft)
09.07.2021 06:29 23,8 C 15,7 C 14,6 C 67 % 80 % 33 % 1015 hPa 0,3 l/m 0,1 km/h (0 Bft)
09.07.2021 06:32 23,8 C 15,7 C 14,0 C 67 % 80 % 33 % 1015 hPa 0,0 l/m 0,7 km/h (0 Bft)
09.07.2021 06:35 23,9 C 15,7 C 14,2 C 67 % 80 % 33 % 1015 hPa 0,0 l/m 0,6 km/h (0 Bft)
09.07.2021 06:38 23,9 C 15,8 C 14,5 C 67 % 80 % 33 % 1015 hPa 0,0 l/m 0,0 km/h (0 Bft)
09.07.2021 06:41 23,8 C 15,6 C 14,0 C 67 % 80 % 33 % 1015 hPa 0,0 l/m 0,0 km/h (0 Bft)
09.07.2021 06:44 23,9 C 15,5 C 14,4 C 67 % 80 % 33 % 1015 hPa 0,0 l/m 0,0 km/h (0 Bft)
09.07.2021 06:47 23,9 C 15,4 C 13,9 C 67 % 80 % 33 % 1015 hPa 0,0 l/m 0,0 km/h (0 Bft)
09.07.2021 06:50 23,8 C 15,6 C 13,8 C 67 % 80 % 33 % 1015 hPa 0,0 l/m 0,0 km/h (0 Bft)
09.07.2021 06:53 23,8 C 15,9 C 13,9 C 67 % 80 % 33 % 1015 hPa 0,0 l/m 0,0 km/h (0 Bft)
09.07.2021 06:56 23,8 C 15,9 C 14,2 C 67 % 80 % 33 % 1015 hPa 0,0 l/m 0,0 km/h (0 Bft)
09.07.2021 06:59 23,8 C 16,2 C 14,3 C 67 % 80 % 33 % 1015 hPa 0,0 l/m 0,0 km/h (0 Bft)
09.07.2021 07:02 23,8 C 16,3 C 14,5 C 67 % 80 % 33 % 1015 hPa 0,0 l/m 0,0 km/h (0 Bft)
09.07.2021 07:05 23,8 C 16,4 C 15,1 C 67 % 80 % 33 % 1015 hPa 0,0 l/m 0,1 km/h (0 Bft)
09.07.2021 07:08 23,9 C 16,4 C 15,0 C 67 % 80 % 33 % 1015 hPa 0,0 l/m 2,5 km/h (1 Bft)
09.07.2021 07:11 23,9 C 16,2 C 15,0 C 67 % 80 % 33 % 1015 hPa 0,0 l/m 4,1 km/h (1 Bft)
09.07.2021 07:14 23,9 C 16,2 C 15,1 C 67 % 80 % 33 % 1015 hPa 0,0 l/m 1,2 km/h (1 Bft)
09.07.2021 07:17 23,9 C 16,1 C 15,0 C 67 % 80 % 33 % 1015 hPa 0,0 l/m 5,0 km/h (1 Bft)
09.07.2021 07:20 23,8 C 16,3 C 15,3 C 67 % 80 % 33 % 1015 hPa 0,0 l/m 7,2 km/h (2 Bft)
09.07.2021 07:23 23,9 C 16,2 C 15,0 C 67 % 80 % 33 % 1015 hPa 0,0 l/m 2,1 km/h (1 Bft)
09.07.2021 07:26 23,9 C 16,0 C 14,5 C 67 % 80 % 33 % 1015 hPa 0,0 l/m 11,0 km/h (2 Bft)
09.07.2021 07:29 23,9 C 15,9 C 14,4 C 67 % 80 % 33 % 1015 hPa 0,0 l/m 4,1 km/h (1 Bft)
09.07.2021 07:32 23,8 C 15,8 C 14,3 C 67 % 80 % 33 % 1015 hPa 0,0 l/m 11,2 km/h (2 Bft)
09.07.2021 07:35 23,9 C 15,6 C 14,3 C 67 % 80 % 33 % 1015 hPa 0,0 l/m 10,0 km/h (2 Bft)
09.07.2021 07:38 23,9 C 15,6 C 14,3 C 67 % 80 % 33 % 1015 hPa 0,0 l/m 7,3 km/h (2 Bft)
09.07.2021 07:41 23,9 C 15,6 C 14,5 C 67 % 80 % 33 % 1015 hPa 0,0 l/m 9,2 km/h (2 Bft)
09.07.2021 07:44 23,9 C 15,5 C 14,3 C 67 % 80 % 33 % 1015 hPa 0,0 l/m 5,3 km/h (1 Bft)
09.07.2021 07:47 23,9 C 15,5 C 14,2 C 67 % 81 % 33 % 1015 hPa 0,0 l/m 5,3 km/h (1 Bft)
09.07.2021 07:50 23,9 C 15,4 C 14,2 C 67 % 81 % 33 % 1015 hPa 0,0 l/m 6,6 km/h (2 Bft)
09.07.2021 07:53 23,9 C 15,4 C 14,3 C 67 % 81 % 33 % 1015 hPa 0,0 l/m 5,7 km/h (1 Bft)
09.07.2021 07:56 23,9 C 15,3 C 14,2 C 67 % 81 % 33 % 1015 hPa 0,0 l/m 12,0 km/h (2 Bft)
09.07.2021 07:59 23,9 C 15,4 C 14,3 C 67 % 81 % 33 % 1015 hPa 0,0 l/m 1,0 km/h (0 Bft)
09.07.2021 08:02 23,8 C 15,3 C 14,3 C 67 % 81 % 33 % 1015 hPa 0,0 l/m 3,0 km/h (1 Bft)
09.07.2021 08:05 23,9 C 15,3 C 14,1 C 67 % 81 % 33 % 1015 hPa 0,0 l/m 12,6 km/h (3 Bft)
09.07.2021 08:08 23,9 C 15,2 C 14,1 C 67 % 81 % 33 % 1015 hPa 0,0 l/m 10,1 km/h (2 Bft)
09.07.2021 08:11 23,9 C 15,2 C 14,0 C 67 % 81 % 33 % 1015 hPa 0,0 l/m 13,3 km/h (3 Bft)
09.07.2021 08:14 23,8 C 15,1 C 14,0 C 67 % 81 % 33 % 1015 hPa 0,0 l/m 8,9 km/h (2 Bft)
09.07.2021 08:17 23,8 C 15,1 C 14,0 C 66 % 81 % 33 % 1015 hPa 0,0 l/m 9,2 km/h (2 Bft)
09.07.2021 08:20 23,9 C 15,1 C 14,1 C 67 % 81 % 33 % 1015 hPa 0,0 l/m 10,5 km/h (2 Bft)
09.07.2021 08:23 23,8 C 15,0 C 14,0 C 67 % 81 % 33 % 1015 hPa 0,0 l/m 11,6 km/h (2 Bft)
09.07.2021 08:26 23,8 C 15,0 C 14,1 C 66 % 81 % 33 % 1015 hPa 0,0 l/m 12,8 km/h (3 Bft)
09.07.2021 08:29 23,8 C 15,0 C 14,0 C 66 % 81 % 33 % 1015 hPa 0,0 l/m 13,0 km/h (3 Bft)
09.07.2021 08:32 23,8 C 15,0 C 14,1 C 66 % 81 % 33 % 1015 hPa 0,0 l/m 12,9 km/h (3 Bft)
09.07.2021 08:35 23,9 C 15,0 C 14,1 C 66 % 81 % 33 % 1015 hPa 0,0 l/m 8,1 km/h (2 Bft)
09.07.2021 08:38 23,9 C 15,0 C 14,1 C 66 % 81 % 33 % 1015 hPa 0,0 l/m 11,1 km/h (2 Bft)
09.07.2021 08:41 23,9 C 15,0 C 14,2 C 66 % 81 % 33 % 1015 hPa 0,0 l/m 13,8 km/h (3 Bft)
09.07.2021 08:44 23,9 C 15,1 C 14,3 C 66 % 81 % 33 % 1015 hPa 0,0 l/m 14,0 km/h (3 Bft)
09.07.2021 08:47 23,8 C 15,1 C 14,5 C 66 % 81 % 33 % 1015 hPa 0,0 l/m 8,1 km/h (2 Bft)
09.07.2021 08:50 23,8 C 15,2 C 14,4 C 66 % 81 % 33 % 1015 hPa 0,0 l/m 5,4 km/h (1 Bft)
09.07.2021 08:53 23,8 C 15,2 C 14,4 C 66 % 81 % 33 % 1015 hPa 0,0 l/m 5,4 km/h (1 Bft)
09.07.2021 08:56 23,9 C 15,2 C 14,3 C 66 % 81 % 33 % 1015 hPa 0,0 l/m 5,6 km/h (1 Bft)
09.07.2021 08:59 23,9 C 15,2 C 14,3 C 66 % 81 % 33 % 1015 hPa 0,0 l/m 7,5 km/h (2 Bft)
09.07.2021 09:02 23,9 C 15,2 C 14,3 C 66 % 81 % 33 % 1015 hPa 0,0 l/m 7,5 km/h (2 Bft)
09.07.2021 09:05 23,9 C 15,2 C 14,4 C 66 % 81 % 33 % 1015 hPa 0,0 l/m 5,8 km/h (2 Bft)
09.07.2021 09:08 23,9 C 15,2 C 14,2 C 66 % 81 % 33 % 1015 hPa 0,0 l/m 7,4 km/h (2 Bft)
09.07.2021 09:11 23,8 C 15,2 C 14,4 C 65 % 81 % 33 % 1015 hPa 0,0 l/m 10,0 km/h (2 Bft)
09.07.2021 09:14 23,8 C 15,2 C 14,4 C 65 % 81 % 33 % 1015 hPa 0,0 l/m 5,9 km/h (2 Bft)
09.07.2021 09:17 23,7 C 15,2 C 14,2 C 65 % 81 % 33 % 1015 hPa 0,0 l/m 5,9 km/h (2 Bft)
09.07.2021 09:20 23,8 C 15,2 C 14,3 C 65 % 81 % 33 % 1015 hPa 0,0 l/m 9,1 km/h (2 Bft)
09.07.2021 09:23 23,8 C 15,2 C 14,3 C 65 % 81 % 33 % 1015 hPa 0,0 l/m 6,7 km/h (2 Bft)
09.07.2021 09:26 23,8 C 15,3 C 14,4 C 65 % 81 % 33 % 1015 hPa 0,0 l/m 1,0 km/h (0 Bft)
09.07.2021 09:29 23,8 C 15,2 C 14,4 C 65 % 81 % 33 % 1015 hPa 0,0 l/m 1,0 km/h (0 Bft)
09.07.2021 09:32 23,8 C 15,3 C 14,5 C 65 % 81 % 33 % 1015 hPa 0,0 l/m 0,6 km/h (0 Bft)
09.07.2021 09:35 23,8 C 15,3 C 14,6 C 65 % 81 % 33 % 1015 hPa 0,0 l/m 8,2 km/h (2 Bft)
09.07.2021 09:38 23,8 C 15,5 C 14,7 C 65 % 81 % 33 % 1015 hPa 0,0 l/m 8,9 km/h (2 Bft)
09.07.2021 09:41 23,8 C 15,5 C 14,8 C 65 % 81 % 33 % 1015 hPa 0,0 l/m 6,2 km/h (2 Bft)
09.07.2021 09:44 23,8 C 15,6 C 15,0 C 65 % 81 % 33 % 1015 hPa 0,0 l/m 8,5 km/h (2 Bft)
09.07.2021 09:47 23,9 C 15,6 C 14,8 C 65 % 81 % 33 % 1015 hPa 0,0 l/m 11,3 km/h (2 Bft)
09.07.2021 09:50 23,8 C 15,6 C 15,0 C 65 % 81 % 33 % 1015 hPa 0,0 l/m 14,6 km/h (3 Bft)
09.07.2021 09:53 23,9 C 15,8 C 15,3 C 65 % 80 % 33 % 1015 hPa 0,0 l/m 11,6 km/h (2 Bft)
09.07.2021 09:56 23,8 C 16,0 C 15,5 C 65 % 80 % 33 % 1015 hPa 0,0 l/m 12,8 km/h (3 Bft)
09.07.2021 09:59 23,9 C 16,1 C 15,5 C 65 % 80 % 33 % 1015 hPa 0,0 l/m 12,8 km/h (3 Bft)
09.07.2021 10:02 23,8 C 16,2 C 15,2 C 65 % 80 % 33 % 1015 hPa 0,0 l/m 12,8 km/h (3 Bft)
09.07.2021 10:05 23,8 C 16,1 C 15,2 C 65 % 80 % 33 % 1015 hPa 0,0 l/m 13,7 km/h (3 Bft)
09.07.2021 10:08 23,9 C 16,1 C 15,0 C 65 % 80 % 33 % 1015 hPa 0,0 l/m 4,1 km/h (1 Bft)
09.07.2021 10:11 23,9 C 16,0 C 14,9 C 65 % 80 % 33 % 1015 hPa 0,0 l/m 9,1 km/h (2 Bft)
09.07.2021 10:14 23,9 C 16,0 C 15,1 C 65 % 80 % 33 % 1015 hPa 0,0 l/m 8,2 km/h (2 Bft)
09.07.2021 10:17 23,9 C 16,1 C 15,1 C 65 % 80 % 33 % 1015 hPa 0,0 l/m 12,0 km/h (2 Bft)
09.07.2021 10:20 23,9 C 16,1 C 15,0 C 65 % 80 % 33 % 1015 hPa 0,0 l/m 18,1 km/h (3 Bft)
09.07.2021 10:23 23,9 C 16,2 C 15,0 C 65 % 80 % 33 % 1015 hPa 0,0 l/m 15,0 km/h (3 Bft)
09.07.2021 10:26 23,9 C 16,2 C 14,9 C 65 % 80 % 33 % 1015 hPa 0,0 l/m 13,3 km/h (3 Bft)
09.07.2021 10:29 23,9 C 16,2 C 15,0 C 65 % 80 % 33 % 1015 hPa 0,0 l/m 16,7 km/h (3 Bft)
09.07.2021 10:32 23,8 C 16,2 C 15,2 C 65 % 80 % 33 % 1015 hPa 0,0 l/m 13,6 km/h (3 Bft)
09.07.2021 10:35 23,9 C 16,2 C 15,5 C 65 % 80 % 33 % 1015 hPa 0,0 l/m 11,6 km/h (2 Bft)
09.07.2021 10:38 23,9 C 16,4 C 15,9 C 65 % 80 % 33 % 1015 hPa 0,0 l/m 8,7 km/h (2 Bft)
09.07.2021 10:41 23,9 C 16,7 C 16,2 C 65 % 79 % 33 % 1015 hPa 0,0 l/m 13,0 km/h (3 Bft)
09.07.2021 10:44 23,9 C 16,7 C 15,5 C 65 % 79 % 33 % 1015 hPa 0,0 l/m 11,5 km/h (2 Bft)
09.07.2021 10:47 23,9 C 16,7 C 15,5 C 65 % 79 % 33 % 1015 hPa 0,0 l/m 4,0 km/h (1 Bft)
09.07.2021 10:50 23,9 C 16,6 C 15,7 C 65 % 79 % 33 % 1016 hPa 0,0 l/m 11,3 km/h (2 Bft)
09.07.2021 10:53 23,9 C 16,7 C 15,6 C 65 % 78 % 33 % 1016 hPa 0,0 l/m 16,1 km/h (3 Bft)
09.07.2021 10:56 23,9 C 16,7 C 15,5 C 65 % 78 % 33 % 1016 hPa 0,0 l/m 14,5 km/h (3 Bft)
09.07.2021 10:59 23,9 C 16,7 C 15,6 C 65 % 78 % 33 % 1016 hPa 0,0 l/m 17,7 km/h (3 Bft)
09.07.2021 11:02 23,9 C 16,7 C 15,6 C 65 % 78 % 33 % 1015 hPa 0,0 l/m 11,0 km/h (2 Bft)
09.07.2021 11:05 23,9 C 16,8 C 15,5 C 65 % 78 % 33 % 1016 hPa 0,0 l/m 12,9 km/h (3 Bft)
09.07.2021 11:08 23,9 C 16,8 C 15,7 C 65 % 78 % 33 % 1016 hPa 0,0 l/m 23,5 km/h (4 Bft)
09.07.2021 11:11 23,9 C 16,8 C 15,5 C 65 % 78 % 33 % 1016 hPa 0,0 l/m 20,0 km/h (4 Bft)
09.07.2021 11:14 23,9 C 16,8 C 15,6 C 65 % 77 % 33 % 1016 hPa 0,0 l/m 25,7 km/h (4 Bft)
09.07.2021 11:17 23,9 C 16,8 C 16,0 C 65 % 77 % 33 % 1016 hPa 0,0 l/m 14,2 km/h (3 Bft)
09.07.2021 11:20 23,9 C 16,9 C 15,8 C 64 % 76 % 33 % 1016 hPa 0,0 l/m 14,2 km/h (3 Bft)
09.07.2021 11:23 23,9 C 17,0 C 15,9 C 64 % 76 % 33 % 1016 hPa 0,0 l/m 18,2 km/h (3 Bft)
09.07.2021 11:26 23,8 C 17,0 C 15,9 C 64 % 77 % 33 % 1016 hPa 0,0 l/m 22,9 km/h (4 Bft)
09.07.2021 11:29 23,8 C 17,1 C 16,3 C 63 % 76 % 33 % 1016 hPa 0,0 l/m 19,2 km/h (3 Bft)
09.07.2021 11:32 23,7 C 17,2 C 16,3 C 63 % 76 % 33 % 1016 hPa 0,0 l/m 22,5 km/h (4 Bft)
09.07.2021 11:35 23,6 C 17,3 C 16,5 C 62 % 76 % 33 % 1016 hPa 0,0 l/m 19,0 km/h (3 Bft)
09.07.2021 11:38 23,6 C 17,4 C 16,4 C 62 % 76 % 33 % 1016 hPa 0,0 l/m 18,8 km/h (3 Bft)
09.07.2021 11:41 23,6 C 17,5 C 16,3 C 62 % 76 % 33 % 1016 hPa 0,0 l/m 23,7 km/h (4 Bft)
09.07.2021 11:44 23,6 C 17,6 C 16,3 C 62 % 75 % 33 % 1016 hPa 0,0 l/m 23,7 km/h (4 Bft)
09.07.2021 11:47 23,6 C 17,6 C 16,4 C 62 % 76 % 33 % 1016 hPa 0,0 l/m 24,7 km/h (4 Bft)
09.07.2021 11:50 23,6 C 17,6 C 16,3 C 62 % 74 % 33 % 1016 hPa 0,0 l/m 24,7 km/h (4 Bft)
09.07.2021 11:53 23,6 C 17,4 C 15,8 C 62 % 74 % 33 % 1016 hPa 0,0 l/m 28,3 km/h (4 Bft)
09.07.2021 11:56 23,6 C 17,2 C 15,7 C 62 % 75 % 33 % 1016 hPa 0,0 l/m 16,3 km/h (3 Bft)
09.07.2021 11:59 23,6 C 17,2 C 15,8 C 61 % 75 % 33 % 1016 hPa 0,0 l/m 16,3 km/h (3 Bft)
09.07.2021 12:02 23,5 C 17,2 C 16,0 C 61 % 75 % 33 % 1016 hPa 0,0 l/m 23,7 km/h (4 Bft)
09.07.2021 12:05 23,5 C 17,4 C 16,1 C 61 % 75 % 33 % 1016 hPa 0,0 l/m 22,3 km/h (4 Bft)
09.07.2021 12:08 23,5 C 17,5 C 16,1 C 61 % 76 % 33 % 1016 hPa 0,0 l/m 17,9 km/h (3 Bft)
09.07.2021 12:11 23,5 C 17,5 C 17,0 C 61 % 76 % 33 % 1016 hPa 0,0 l/m 17,9 km/h (3 Bft)
09.07.2021 12:14 23,5 C 17,9 C 16,9 C 61 % 74 % 33 % 1016 hPa 0,0 l/m 20,7 km/h (4 Bft)
09.07.2021 12:17 23,5 C 18,2 C 16,8 C 61 % 74 % 33 % 1016 hPa 0,0 l/m 25,5 km/h (4 Bft)
09.07.2021 12:20 23,6 C 18,2 C 17,0 C 61 % 74 % 33 % 1016 hPa 0,0 l/m 20,5 km/h (4 Bft)
09.07.2021 12:23 23,6 C 18,2 C 16,8 C 61 % 74 % 33 % 1016 hPa 0,0 l/m 20,5 km/h (4 Bft)
09.07.2021 12:26 23,6 C 18,2 C 16,9 C 61 % 75 % 33 % 1016 hPa 0,0 l/m 18,1 km/h (3 Bft)
09.07.2021 12:29 23,6 C 18,0 C 16,1 C 61 % 73 % 33 % 1016 hPa 0,0 l/m 23,2 km/h (4 Bft)
09.07.2021 12:32 23,6 C 17,9 C 16,2 C 61 % 74 % 33 % 1016 hPa 0,0 l/m 17,1 km/h (3 Bft)
09.07.2021 12:35 23,5 C 17,8 C 16,4 C 61 % 74 % 33 % 1016 hPa 0,0 l/m 17,1 km/h (3 Bft)
09.07.2021 12:38 23,6 C 17,7 C 16,1 C 61 % 74 % 33 % 1016 hPa 0,0 l/m 21,8 km/h (4 Bft)
09.07.2021 12:41 23,5 C 17,7 C 16,2 C 60 % 74 % 33 % 1016 hPa 0,0 l/m 21,8 km/h (4 Bft)
09.07.2021 12:44 23,5 C 17,6 C 16,0 C 60 % 74 % 33 % 1016 hPa 0,0 l/m 20,0 km/h (4 Bft)
09.07.2021 12:47 23,5 C 17,6 C 16,0 C 60 % 75 % 33 % 1016 hPa 0,0 l/m 20,0 km/h (4 Bft)
09.07.2021 12:50 23,5 C 17,5 C 15,9 C 60 % 74 % 33 % 1016 hPa 0,0 l/m 20,0 km/h (4 Bft)
09.07.2021 12:53 23,4 C 17,7 C 16,0 C 60 % 75 % 33 % 1016 hPa 0,0 l/m 29,0 km/h (5 Bft)
09.07.2021 12:56 23,5 C 18,2 C 17,3 C 60 % 75 % 33 % 1016 hPa 0,0 l/m 29,0 km/h (5 Bft)
09.07.2021 12:59 23,5 C 18,4 C 17,1 C 60 % 74 % 33 % 1016 hPa 0,0 l/m 11,6 km/h (2 Bft)
09.07.2021 13:02 23,5 C 18,3 C 16,8 C 60 % 73 % 33 % 1016 hPa 0,0 l/m 21,2 km/h (4 Bft)
09.07.2021 13:05 23,5 C 18,3 C 16,9 C 60 % 73 % 33 % 1016 hPa 0,0 l/m 18,7 km/h (3 Bft)
09.07.2021 13:08 23,5 C 18,3 C 16,6 C 60 % 73 % 33 % 1016 hPa 0,0 l/m 28,1 km/h (4 Bft)
09.07.2021 13:11 23,6 C 18,1 C 16,1 C 60 % 72 % 33 % 1016 hPa 0,0 l/m 28,6 km/h (4 Bft)
09.07.2021 13:14 23,6 C 17,8 C 15,8 C 60 % 72 % 33 % 1016 hPa 0,0 l/m 23,5 km/h (4 Bft)
09.07.2021 13:17 23,5 C 17,7 C 15,8 C 60 % 73 % 33 % 1016 hPa 0,0 l/m 23,5 km/h (4 Bft)
09.07.2021 13:20 23,6 C 17,6 C 16,0 C 60 % 73 % 33 % 1016 hPa 0,0 l/m 24,0 km/h (4 Bft)
09.07.2021 13:23 23,6 C 17,7 C 17,3 C 60 % 73 % 33 % 1016 hPa 0,0 l/m 15,2 km/h (3 Bft)
09.07.2021 13:26 23,5 C 18,1 C 17,3 C 60 % 74 % 33 % 1016 hPa 0,0 l/m 21,1 km/h (4 Bft)
09.07.2021 13:29 23,5 C 18,4 C 17,1 C 60 % 73 % 33 % 1016 hPa 0,0 l/m 15,7 km/h (3 Bft)
09.07.2021 13:32 23,5 C 18,5 C 17,0 C 60 % 72 % 33 % 1016 hPa 0,0 l/m 15,8 km/h (3 Bft)
09.07.2021 13:35 23,5 C 18,5 C 17,2 C 60 % 72 % 33 % 1016 hPa 0,0 l/m 16,2 km/h (3 Bft)
09.07.2021 13:38 23,5 C 18,6 C 17,6 C 60 % 72 % 33 % 1016 hPa 0,0 l/m 16,2 km/h (3 Bft)
09.07.2021 13:41 23,6 C 18,7 C 16,8 C 60 % 72 % 33 % 1016 hPa 0,0 l/m 16,2 km/h (3 Bft)
09.07.2021 13:44 23,6 C 18,6 C 16,3 C 60 % 71 % 33 % 1016 hPa 0,0 l/m 16,2 km/h (3 Bft)
09.07.2021 13:47 23,6 C 18,4 C 16,1 C 60 % 72 % 33 % 1016 hPa 0,0 l/m 8,4 km/h (2 Bft)
09.07.2021 13:50 23,6 C 18,1 C 16,0 C 60 % 72 % 33 % 1016 hPa 0,0 l/m 8,4 km/h (2 Bft)
09.07.2021 13:53 23,6 C 18,0 C 15,9 C 60 % 72 % 33 % 1016 hPa 0,0 l/m 8,4 km/h (2 Bft)
09.07.2021 13:56 23,5 C 17,8 C 15,9 C 60 % 73 % 33 % 1016 hPa 0,0 l/m 8,4 km/h (2 Bft)
09.07.2021 13:59 23,5 C 17,8 C 16,5 C 60 % 73 % 33 % 1016 hPa 0,0 l/m 8,4 km/h (2 Bft)
09.07.2021 14:02 23,5 C 17,8 C 17,9 C 60 % 73 % 33 % 1016 hPa 0,0 l/m 17,5 km/h (3 Bft)
09.07.2021 14:05 23,5 C 18,5 C 18,3 C 60 % 73 % 33 % 1016 hPa 0,0 l/m 17,5 km/h (3 Bft)
09.07.2021 14:08 23,6 C 19,0 C 19,1 C 60 % 73 % 33 % 1016 hPa 0,0 l/m 17,5 km/h (3 Bft)
09.07.2021 14:11 23,6 C 19,2 C 18,2 C 60 % 71 % 33 % 1016 hPa 0,0 l/m 18,0 km/h (3 Bft)
09.07.2021 14:14 23,6 C 19,2 C 17,1 C 60 % 71 % 33 % 1016 hPa 0,0 l/m 18,0 km/h (3 Bft)
09.07.2021 14:17 23,6 C 19,0 C 16,7 C 60 % 68 % 33 % 1016 hPa 0,0 l/m 18,0 km/h (3 Bft)
09.07.2021 14:20 23,6 C 18,8 C 16,7 C 59 % 69 % 33 % 1016 hPa 0,0 l/m 18,0 km/h (3 Bft)
09.07.2021 14:23 23,6 C 18,8 C 19,6 C 59 % 70 % 33 % 1016 hPa 0,0 l/m 18,0 km/h (3 Bft)
09.07.2021 14:26 23,6 C 19,1 C 18,7 C 59 % 70 % 33 % 1016 hPa 0,0 l/m 18,0 km/h (3 Bft)
09.07.2021 14:29 23,6 C 19,4 C 17,6 C 59 % 69 % 33 % 1016 hPa 0,0 l/m 19,6 km/h (3 Bft)
09.07.2021 14:32 23,6 C 19,3 C 17,6 C 59 % 69 % 33 % 1016 hPa 0,0 l/m 18,1 km/h (3 Bft)
09.07.2021 14:35 23,6 C 19,4 C 17,8 C 59 % 69 % 33 % 1016 hPa 0,0 l/m 18,1 km/h (3 Bft)
09.07.2021 14:38 23,6 C 19,3 C 17,7 C 59 % 68 % 33 % 1016 hPa 0,0 l/m 18,1 km/h (3 Bft)
09.07.2021 14:41 23,6 C 19,2 C 17,3 C 59 % 69 % 33 % 1016 hPa 0,0 l/m 18,1 km/h (3 Bft)
09.07.2021 14:44 23,6 C 19,0 C 17,3 C 59 % 68 % 33 % 1016 hPa 0,0 l/m 32,8 km/h (5 Bft)
09.07.2021 14:47 23,5 C 18,8 C 16,6 C 58 % 70 % 33 % 1016 hPa 0,0 l/m 32,8 km/h (5 Bft)
09.07.2021 14:50 23,6 C 18,8 C 17,2 C 59 % 70 % 33 % 1016 hPa 0,0 l/m 30,5 km/h (5 Bft)
09.07.2021 14:53 23,5 C 19,1 C 18,3 C 58 % 71 % 33 % 1016 hPa 0,0 l/m 15,6 km/h (3 Bft)
09.07.2021 14:56 23,5 C 19,2 C 17,7 C 58 % 71 % 33 % 1016 hPa 0,0 l/m 16,5 km/h (3 Bft)
09.07.2021 14:59 23,6 C 19,2 C 17,2 C 59 % 70 % 33 % 1016 hPa 0,0 l/m 17,5 km/h (3 Bft)
09.07.2021 15:02 23,6 C 19,1 C 17,4 C 59 % 70 % 33 % 1016 hPa 0,0 l/m 20,8 km/h (4 Bft)
09.07.2021 15:05 23,6 C 19,0 C 17,2 C 59 % 70 % 33 % 1016 hPa 0,0 l/m 13,3 km/h (3 Bft)
09.07.2021 15:08 23,6 C 19,0 C 17,0 C 59 % 70 % 33 % 1016 hPa 0,0 l/m 20,3 km/h (4 Bft)
09.07.2021 15:11 23,6 C 18,8 C 16,8 C 59 % 69 % 33 % 1016 hPa 0,0 l/m 29,5 km/h (5 Bft)
09.07.2021 15:14 23,6 C 18,8 C 16,9 C 59 % 68 % 33 % 1016 hPa 0,0 l/m 19,3 km/h (3 Bft)
09.07.2021 15:17 23,6 C 18,8 C 16,9 C 59 % 68 % 33 % 1016 hPa 0,0 l/m 17,8 km/h (3 Bft)
09.07.2021 15:20 23,6 C 18,8 C 17,0 C 59 % 70 % 33 % 1016 hPa 0,0 l/m 19,7 km/h (3 Bft)
09.07.2021 15:23 23,6 C 18,8 C 17,0 C 59 % 69 % 33 % 1016 hPa 0,0 l/m 18,3 km/h (3 Bft)
09.07.2021 15:26 23,6 C 18,7 C 16,8 C 59 % 69 % 33 % 1016 hPa 0,0 l/m 15,0 km/h (3 Bft)
09.07.2021 15:29 23,6 C 18,8 C 17,1 C 59 % 70 % 33 % 1016 hPa 0,0 l/m 10,0 km/h (2 Bft)
09.07.2021 15:32 23,6 C 19,0 C 17,8 C 59 % 70 % 33 % 1016 hPa 0,0 l/m 11,6 km/h (2 Bft)
09.07.2021 15:35 23,6 C 19,0 C 17,2 C 59 % 70 % 33 % 1016 hPa 0,0 l/m 15,4 km/h (3 Bft)
09.07.2021 15:38 23,6 C 19,0 C 17,1 C 59 % 69 % 33 % 1016 hPa 0,0 l/m 21,0 km/h (4 Bft)
09.07.2021 15:41 23,6 C 18,9 C 17,0 C 59 % 70 % 33 % 1016 hPa 0,0 l/m 19,1 km/h (3 Bft)
09.07.2021 15:44 23,6 C 18,9 C 17,0 C 59 % 70 % 33 % 1016 hPa 0,0 l/m 22,6 km/h (4 Bft)
09.07.2021 15:47 23,6 C 19,0 C 17,8 C 59 % 70 % 33 % 1016 hPa 0,0 l/m 23,0 km/h (4 Bft)
09.07.2021 15:50 23,6 C 19,1 C 17,3 C 59 % 70 % 33 % 1016 hPa 0,0 l/m 20,3 km/h (4 Bft)
09.07.2021 15:53 23,6 C 19,1 C 17,1 C 59 % 69 % 33 % 1016 hPa 0,0 l/m 19,8 km/h (3 Bft)
09.07.2021 15:56 23,6 C 19,0 C 17,1 C 59 % 70 % 33 % 1016 hPa 0,0 l/m 14,3 km/h (3 Bft)
09.07.2021 15:59 23,6 C 19,0 C 17,3 C 59 % 70 % 33 % 1016 hPa 0,0 l/m 17,5 km/h (3 Bft)
09.07.2021 16:02 23,6 C 19,0 C 17,3 C 59 % 70 % 33 % 1016 hPa 0,0 l/m 16,1 km/h (3 Bft)
09.07.2021 16:05 23,5 C 19,1 C 17,5 C 59 % 70 % 33 % 1016 hPa 0,0 l/m 15,3 km/h (3 Bft)
09.07.2021 16:08 23,5 C 19,1 C 17,3 C 59 % 70 % 33 % 1016 hPa 0,0 l/m 25,5 km/h (4 Bft)
09.07.2021 16:11 23,6 C 19,1 C 17,1 C 59 % 68 % 33 % 1016 hPa 0,0 l/m 27,0 km/h (4 Bft)
09.07.2021 16:14 23,6 C 19,2 C 17,4 C 59 % 68 % 33 % 1016 hPa 0,0 l/m 24,6 km/h (4 Bft)
09.07.2021 16:17 23,6 C 19,2 C 17,9 C 59 % 68 % 33 % 1016 hPa 0,0 l/m 24,6 km/h (4 Bft)
09.07.2021 16:20 23,6 C 19,4 C 17,6 C 59 % 68 % 33 % 1016 hPa 0,0 l/m 24,3 km/h (4 Bft)
09.07.2021 16:23 23,6 C 19,5 C 18,0 C 59 % 68 % 33 % 1016 hPa 0,0 l/m 22,1 km/h (4 Bft)
09.07.2021 16:26 23,6 C 19,6 C 18,0 C 59 % 68 % 33 % 1016 hPa 0,0 l/m 21,6 km/h (4 Bft)
09.07.2021 16:29 23,6 C 19,8 C 17,6 C 59 % 68 % 33 % 1016 hPa 0,0 l/m 19,6 km/h (3 Bft)
09.07.2021 16:32 23,7 C 19,8 C 17,6 C 59 % 68 % 33 % 1016 hPa 0,0 l/m 11,5 km/h (2 Bft)
09.07.2021 16:35 23,7 C 19,8 C 18,1 C 59 % 67 % 33 % 1016 hPa 0,0 l/m 21,7 km/h (4 Bft)
09.07.2021 16:38 23,7 C 19,9 C 17,9 C 59 % 66 % 33 % 1016 hPa 0,0 l/m 19,8 km/h (3 Bft)
09.07.2021 16:41 23,7 C 20,0 C 17,9 C 59 % 66 % 33 % 1016 hPa 0,0 l/m 24,4 km/h (4 Bft)
09.07.2021 16:44 23,7 C 20,0 C 17,8 C 59 % 66 % 33 % 1016 hPa 0,0 l/m 17,3 km/h (3 Bft)
09.07.2021 16:47 23,8 C 20,0 C 18,0 C 59 % 67 % 33 % 1016 hPa 0,0 l/m 23,0 km/h (4 Bft)
09.07.2021 16:50 23,8 C 20,0 C 17,8 C 59 % 66 % 33 % 1016 hPa 0,0 l/m 18,5 km/h (3 Bft)
09.07.2021 16:53 23,8 C 20,0 C 18,2 C 59 % 67 % 33 % 1016 hPa 0,0 l/m 15,0 km/h (3 Bft)
09.07.2021 16:56 23,8 C 20,1 C 18,3 C 59 % 67 % 33 % 1016 hPa 0,0 l/m 19,8 km/h (3 Bft)
09.07.2021 16:59 23,8 C 20,2 C 18,1 C 59 % 66 % 33 % 1016 hPa 0,0 l/m 19,8 km/h (3 Bft)
09.07.2021 17:02 23,8 C 20,3 C 18,3 C 59 % 66 % 33 % 1016 hPa 0,0 l/m 22,9 km/h (4 Bft)
09.07.2021 17:05 23,8 C 20,4 C 18,1 C 59 % 66 % 33 % 1016 hPa 0,0 l/m 27,2 km/h (4 Bft)
09.07.2021 17:08 23,9 C 20,3 C 17,6 C 59 % 65 % 33 % 1016 hPa 0,0 l/m 13,8 km/h (3 Bft)
09.07.2021 17:11 23,8 C 20,2 C 17,6 C 59 % 66 % 33 % 1016 hPa 0,0 l/m 13,1 km/h (3 Bft)
09.07.2021 17:14 23,8 C 20,0 C 17,5 C 59 % 66 % 33 % 1016 hPa 0,0 l/m 20,7 km/h (4 Bft)
09.07.2021 17:17 23,8 C 19,9 C 18,1 C 59 % 66 % 33 % 1016 hPa 0,0 l/m 19,5 km/h (3 Bft)
09.07.2021 17:20 23,8 C 20,1 C 17,8 C 59 % 66 % 33 % 1016 hPa 0,0 l/m 15,1 km/h (3 Bft)
09.07.2021 17:23 23,8 C 20,0 C 17,3 C 59 % 66 % 33 % 1016 hPa 0,0 l/m 15,1 km/h (3 Bft)
09.07.2021 17:26 23,8 C 19,9 C 17,6 C 59 % 67 % 33 % 1016 hPa 0,0 l/m 13,6 km/h (3 Bft)
09.07.2021 17:29 23,8 C 19,8 C 17,4 C 59 % 68 % 33 % 1016 hPa 0,0 l/m 16,3 km/h (3 Bft)
09.07.2021 17:32 23,8 C 19,7 C 17,3 C 59 % 67 % 33 % 1016 hPa 0,0 l/m 14,5 km/h (3 Bft)
09.07.2021 17:35 23,8 C 19,6 C 17,3 C 59 % 68 % 33 % 1016 hPa 0,0 l/m 16,7 km/h (3 Bft)
09.07.2021 17:38 23,8 C 19,6 C 17,5 C 59 % 68 % 33 % 1016 hPa 0,0 l/m 13,3 km/h (3 Bft)
09.07.2021 17:41 23,8 C 19,7 C 17,6 C 59 % 68 % 33 % 1016 hPa 0,0 l/m 17,3 km/h (3 Bft)
09.07.2021 17:44 23,8 C 20,0 C 18,3 C 59 % 67 % 33 % 1016 hPa 0,0 l/m 14,8 km/h (3 Bft)
09.07.2021 17:47 23,8 C 20,1 C 18,2 C 59 % 68 % 33 % 1016 hPa 0,0 l/m 16,0 km/h (3 Bft)
09.07.2021 17:50 23,8 C 20,1 C 18,0 C 59 % 67 % 33 % 1016 hPa 0,0 l/m 15,8 km/h (3 Bft)
09.07.2021 17:53 23,8 C 20,0 C 17,5 C 59 % 67 % 33 % 1016 hPa 0,0 l/m 18,6 km/h (3 Bft)
09.07.2021 17:56 23,8 C 20,0 C 17,7 C 59 % 68 % 33 % 1016 hPa 0,0 l/m 15,3 km/h (3 Bft)
09.07.2021 17:59 23,8 C 20,1 C 18,0 C 59 % 67 % 33 % 1016 hPa 0,0 l/m 11,3 km/h (2 Bft)
09.07.2021 18:02 23,8 C 20,2 C 18,3 C 59 % 66 % 33 % 1016 hPa 0,0 l/m 19,6 km/h (3 Bft)
09.07.2021 18:05 23,8 C 20,2 C 18,3 C 59 % 66 % 33 % 1016 hPa 0,0 l/m 19,6 km/h (3 Bft)
09.07.2021 18:08 23,8 C 20,1 C 17,7 C 59 % 66 % 33 % 1016 hPa 0,0 l/m 12,2 km/h (2 Bft)
09.07.2021 18:11 23,8 C 20,0 C 17,6 C 59 % 67 % 33 % 1016 hPa 0,0 l/m 12,3 km/h (3 Bft)
09.07.2021 18:14 23,8 C 20,0 C 17,7 C 59 % 68 % 33 % 1016 hPa 0,0 l/m 14,3 km/h (3 Bft)
09.07.2021 18:17 23,9 C 20,2 C 18,4 C 59 % 67 % 33 % 1016 hPa 0,0 l/m 10,6 km/h (2 Bft)
09.07.2021 18:20 23,9 C 20,4 C 17,6 C 59 % 66 % 33 % 1016 hPa 0,0 l/m 15,5 km/h (3 Bft)
09.07.2021 18:23 23,9 C 20,2 C 17,3 C 59 % 66 % 33 % 1016 hPa 0,0 l/m 23,2 km/h (4 Bft)
09.07.2021 18:26 23,8 C 20,2 C 17,2 C 59 % 66 % 33 % 1016 hPa 0,0 l/m 19,0 km/h (3 Bft)
09.07.2021 18:29 23,8 C 19,8 C 17,0 C 59 % 66 % 33 % 1016 hPa 0,0 l/m 20,7 km/h (4 Bft)
09.07.2021 18:32 23,8 C 19,7 C 17,1 C 59 % 67 % 33 % 1016 hPa 0,0 l/m 12,2 km/h (2 Bft)
09.07.2021 18:35 23,8 C 19,6 C 17,3 C 58 % 67 % 33 % 1016 hPa 0,0 l/m 12,5 km/h (3 Bft)
09.07.2021 18:38 23,8 C 19,5 C 17,1 C 58 % 67 % 33 % 1016 hPa 0,0 l/m 27,2 km/h (4 Bft)
09.07.2021 18:41 23,8 C 19,5 C 17,1 C 58 % 68 % 33 % 1016 hPa 0,0 l/m 12,5 km/h (3 Bft)
09.07.2021 18:44 23,8 C 19,4 C 17,1 C 58 % 68 % 33 % 1016 hPa 0,0 l/m 13,2 km/h (3 Bft)
09.07.2021 18:47 23,8 C 19,4 C 17,1 C 58 % 69 % 33 % 1016 hPa 0,0 l/m 6,8 km/h (2 Bft)
09.07.2021 18:50 23,7 C 19,3 C 17,1 C 58 % 68 % 33 % 1016 hPa 0,0 l/m 13,6 km/h (3 Bft)
09.07.2021 18:53 23,7 C 19,3 C 17,2 C 58 % 69 % 33 % 1016 hPa 0,0 l/m 16,5 km/h (3 Bft)
09.07.2021 18:56 23,7 C 19,3 C 17,0 C 58 % 69 % 33 % 1016 hPa 0,0 l/m 16,5 km/h (3 Bft)
09.07.2021 18:59 23,7 C 19,2 C 17,0 C 58 % 69 % 33 % 1016 hPa 0,0 l/m 15,2 km/h (3 Bft)
09.07.2021 19:02 23,7 C 19,4 C 17,5 C 58 % 69 % 33 % 1016 hPa 0,0 l/m 15,2 km/h (3 Bft)
09.07.2021 19:05 23,7 C 19,5 C 17,4 C 59 % 68 % 33 % 1016 hPa 0,0 l/m 15,2 km/h (3 Bft)
09.07.2021 19:08 23,8 C 19,5 C 17,2 C 59 % 68 % 33 % 1016 hPa 0,0 l/m 15,2 km/h (3 Bft)
09.07.2021 19:11 23,8 C 19,4 C 17,3 C 58 % 69 % 33 % 1016 hPa 0,0 l/m 15,2 km/h (3 Bft)
09.07.2021 19:14 23,8 C 19,4 C 17,0 C 58 % 69 % 33 % 1016 hPa 0,0 l/m 15,2 km/h (3 Bft)
09.07.2021 19:17 23,8 C 19,3 C 17,0 C 59 % 69 % 33 % 1016 hPa 0,0 l/m 15,2 km/h (3 Bft)
09.07.2021 19:20 23,7 C 19,3 C 16,9 C 58 % 69 % 33 % 1016 hPa 0,0 l/m 15,2 km/h (3 Bft)
09.07.2021 19:23 23,7 C 19,2 C 17,1 C 58 % 70 % 33 % 1016 hPa 0,0 l/m 15,2 km/h (3 Bft)
09.07.2021 19:26 23,7 C 19,2 C 17,1 C 58 % 70 % 33 % 1016 hPa 0,0 l/m 15,2 km/h (3 Bft)
09.07.2021 19:29 23,7 C 19,2 C 16,9 C 59 % 70 % 33 % 1016 hPa 0,0 l/m 15,2 km/h (3 Bft)
09.07.2021 19:32 23,7 C 19,2 C 17,0 C 59 % 71 % 33 % 1016 hPa 0,0 l/m 5,0 km/h (1 Bft)
09.07.2021 19:35 23,6 C 19,2 C 16,7 C 59 % 71 % 33 % 1016 hPa 0,0 l/m 4,4 km/h (1 Bft)
09.07.2021 19:38 23,6 C 19,1 C 16,8 C 59 % 71 % 33 % 1016 hPa 0,0 l/m 3,6 km/h (1 Bft)
09.07.2021 19:41 23,6 C 19,1 C 16,8 C 59 % 71 % 33 % 1016 hPa 0,0 l/m 1,5 km/h (1 Bft)
09.07.2021 19:44 23,6 C 19,1 C 16,8 C 59 % 71 % 33 % 1016 hPa 0,0 l/m 1,5 km/h (1 Bft)
09.07.2021 19:47 23,6 C 19,1 C 16,7 C 59 % 71 % 33 % 1016 hPa 0,0 l/m 5,0 km/h (1 Bft)
09.07.2021 19:50 23,6 C 19,1 C 16,7 C 59 % 71 % 33 % 1016 hPa 0,0 l/m 3,2 km/h (1 Bft)
09.07.2021 19:53 23,6 C 19,1 C 16,6 C 59 % 71 % 33 % 1016 hPa 0,0 l/m 0,7 km/h (0 Bft)
09.07.2021 19:56 23,6 C 19,1 C 16,5 C 59 % 72 % 33 % 1016 hPa 0,0 l/m 1,9 km/h (1 Bft)
09.07.2021 19:59 23,6 C 19,0 C 16,6 C 59 % 72 % 33 % 1016 hPa 0,0 l/m 2,8 km/h (1 Bft)
09.07.2021 20:02 23,6 C 19,0 C 16,5 C 59 % 72 % 33 % 1016 hPa 0,0 l/m 3,2 km/h (1 Bft)
09.07.2021 20:05 23,6 C 18,9 C 16,5 C 59 % 72 % 33 % 1016 hPa 0,0 l/m 3,2 km/h (1 Bft)
09.07.2021 20:08 23,6 C 18,8 C 16,3 C 59 % 71 % 33 % 1016 hPa 0,0 l/m 0,4 km/h (0 Bft)
09.07.2021 20:11 23,6 C 18,8 C 16,4 C 59 % 71 % 33 % 1016 hPa 0,0 l/m 0,4 km/h (0 Bft)
09.07.2021 20:14 23,6 C 18,8 C 16,3 C 59 % 72 % 33 % 1016 hPa 0,0 l/m 0,6 km/h (0 Bft)
09.07.2021 20:17 23,5 C 18,8 C 16,3 C 59 % 72 % 33 % 1016 hPa 0,0 l/m 0,6 km/h (0 Bft)
09.07.2021 20:20 23,6 C 18,7 C 16,2 C 59 % 72 % 33 % 1017 hPa 0,0 l/m 0,6 km/h (0 Bft)
09.07.2021 20:23 23,6 C 18,7 C 16,1 C 59 % 72 % 33 % 1017 hPa 0,0 l/m 0,6 km/h (0 Bft)
09.07.2021 20:26 23,6 C 18,6 C 16,0 C 59 % 73 % 33 % 1017 hPa 0,0 l/m 0,6 km/h (0 Bft)
09.07.2021 20:29 23,6 C 18,6 C 15,9 C 59 % 73 % 33 % 1017 hPa 0,0 l/m 0,6 km/h (0 Bft)
09.07.2021 20:32 23,6 C 18,5 C 15,7 C 59 % 73 % 33 % 1017 hPa 0,0 l/m 0,6 km/h (0 Bft)
09.07.2021 20:35 23,6 C 18,3 C 15,6 C 59 % 74 % 33 % 1017 hPa 0,0 l/m 0,6 km/h (0 Bft)
09.07.2021 20:38 23,6 C 18,2 C 15,5 C 59 % 74 % 33 % 1017 hPa 0,0 l/m 0,6 km/h (0 Bft)
09.07.2021 20:41 23,6 C 18,1 C 15,6 C 60 % 75 % 33 % 1017 hPa 0,0 l/m 0,6 km/h (0 Bft)
09.07.2021 20:44 23,6 C 18,0 C 15,6 C 60 % 74 % 33 % 1017 hPa 0,0 l/m 0,6 km/h (0 Bft)
09.07.2021 20:47 23,6 C 18,0 C 15,4 C 60 % 75 % 33 % 1017 hPa 0,0 l/m 0,6 km/h (0 Bft)
09.07.2021 20:50 23,6 C 18,0 C 15,4 C 60 % 75 % 33 % 1017 hPa 0,0 l/m 0,6 km/h (0 Bft)
09.07.2021 20:53 23,6 C 18,0 C 15,4 C 60 % 75 % 33 % 1017 hPa 0,0 l/m 0,6 km/h (0 Bft)
09.07.2021 20:56 23,6 C 17,9 C 15,4 C 60 % 75 % 33 % 1017 hPa 0,0 l/m 0,6 km/h (0 Bft)
09.07.2021 20:59 23,6 C 17,8 C 15,4 C 60 % 76 % 33 % 1017 hPa 0,0 l/m 0,6 km/h (0 Bft)
09.07.2021 21:02 23,6 C 17,7 C 15,3 C 60 % 76 % 33 % 1017 hPa 0,0 l/m 0,6 km/h (0 Bft)
09.07.2021 21:05 23,6 C 17,7 C 15,3 C 60 % 77 % 33 % 1016 hPa 0,0 l/m 0,6 km/h (0 Bft)
09.07.2021 21:08 23,7 C 17,7 C 15,1 C 60 % 77 % 33 % 1016 hPa 0,0 l/m 0,6 km/h (0 Bft)
09.07.2021 21:11 23,7 C 17,6 C 15,2 C 60 % 77 % 33 % 1017 hPa 0,0 l/m 0,6 km/h (0 Bft)
09.07.2021 21:14 23,7 C 17,5 C 15,3 C 60 % 77 % 33 % 1017 hPa 0,0 l/m 0,6 km/h (0 Bft)
09.07.2021 21:17 23,7 C 17,5 C 15,0 C 60 % 77 % 33 % 1017 hPa 0,0 l/m 0,6 km/h (0 Bft)
09.07.2021 21:20 23,7 C 17,4 C 15,0 C 60 % 77 % 33 % 1017 hPa 0,0 l/m 0,6 km/h (0 Bft)
09.07.2021 21:23 23,7 C 17,3 C 15,0 C 60 % 78 % 33 % 1017 hPa 0,0 l/m 0,6 km/h (0 Bft)
09.07.2021 21:26 23,7 C 17,3 C 15,3 C 60 % 78 % 33 % 1017 hPa 0,0 l/m 0,6 km/h (0 Bft)
09.07.2021 21:29 23,7 C 17,3 C 15,2 C 60 % 78 % 33 % 1017 hPa 0,0 l/m 0,6 km/h (0 Bft)
09.07.2021 21:32 23,7 C 17,3 C 15,1 C 60 % 78 % 33 % 1017 hPa 0,0 l/m 0,6 km/h (0 Bft)
09.07.2021 21:35 23,7 C 17,3 C 15,0 C 60 % 78 % 33 % 1017 hPa 0,0 l/m 0,6 km/h (0 Bft)
09.07.2021 21:38 23,7 C 17,2 C 14,9 C 60 % 78 % 33 % 1017 hPa 0,0 l/m 0,6 km/h (0 Bft)
09.07.2021 21:41 23,6 C 17,2 C 14,8 C 60 % 78 % 33 % 1017 hPa 0,0 l/m 0,6 km/h (0 Bft)
09.07.2021 21:44 23,7 C 17,2 C 14,8 C 60 % 78 % 33 % 1017 hPa 0,0 l/m 0,6 km/h (0 Bft)
09.07.2021 21:47 23,7 C 17,1 C 14,8 C 60 % 78 % 33 % 1017 hPa 0,0 l/m 0,6 km/h (0 Bft)
09.07.2021 21:50 23,7 C 17,0 C 14,8 C 60 % 78 % 33 % 1017 hPa 0,0 l/m 0,6 km/h (0 Bft)
09.07.2021 21:53 23,6 C 16,8 C 14,6 C 60 % 78 % 33 % 1017 hPa 0,0 l/m 0,6 km/h (0 Bft)
09.07.2021 21:56 23,7 C 16,8 C 14,4 C 60 % 79 % 33 % 1017 hPa 0,0 l/m 0,0 km/h (0 Bft)
09.07.2021 21:59 23,7 C 16,8 C 14,4 C 60 % 79 % 33 % 1017 hPa 0,0 l/m 0,0 km/h (0 Bft)
09.07.2021 22:02 23,7 C 16,7 C 14,2 C 60 % 79 % 33 % 1017 hPa 0,0 l/m 0,0 km/h (0 Bft)
09.07.2021 22:05 23,7 C 16,6 C 14,4 C 60 % 79 % 33 % 1017 hPa 0,0 l/m 0,0 km/h (0 Bft)
09.07.2021 22:08 23,7 C 16,5 C 14,2 C 60 % 79 % 33 % 1017 hPa 0,0 l/m 0,0 km/h (0 Bft)
09.07.2021 22:11 23,7 C 16,4 C 14,3 C 60 % 80 % 33 % 1017 hPa 0,0 l/m 0,0 km/h (0 Bft)
09.07.2021 22:14 23,7 C 16,4 C 14,1 C 60 % 80 % 33 % 1017 hPa 0,0 l/m 0,0 km/h (0 Bft)
09.07.2021 22:17 23,7 C 16,4 C 14,1 C 60 % 80 % 33 % 1017 hPa 0,0 l/m 0,0 km/h (0 Bft)
09.07.2021 22:20 23,7 C 16,4 C 14,1 C 60 % 80 % 33 % 1017 hPa 0,0 l/m 0,0 km/h (0 Bft)
09.07.2021 22:23 23,7 C 16,2 C 14,2 C 60 % 80 % 33 % 1017 hPa 0,0 l/m 0,0 km/h (0 Bft)
09.07.2021 22:26 23,7 C 16,2 C 14,1 C 60 % 80 % 33 % 1017 hPa 0,0 l/m 0,0 km/h (0 Bft)
09.07.2021 22:29 23,7 C 16,1 C 14,2 C 60 % 80 % 33 % 1017 hPa 0,0 l/m 0,0 km/h (0 Bft)
09.07.2021 22:32 23,7 C 16,0 C 14,0 C 60 % 80 % 33 % 1017 hPa 0,0 l/m 0,0 km/h (0 Bft)
09.07.2021 22:35 23,7 C 16,0 C 14,2 C 60 % 81 % 33 % 1017 hPa 0,0 l/m 0,0 km/h (0 Bft)
09.07.2021 22:38 23,7 C 16,0 C 14,2 C 60 % 81 % 33 % 1017 hPa 0,0 l/m 0,0 km/h (0 Bft)
09.07.2021 22:41 23,7 C 15,9 C 13,7 C 60 % 81 % 33 % 1017 hPa 0,0 l/m 0,0 km/h (0 Bft)
09.07.2021 22:44 23,7 C 15,9 C 13,7 C 60 % 81 % 33 % 1017 hPa 0,0 l/m 0,0 km/h (0 Bft)
09.07.2021 22:47 23,7 C 15,8 C 13,5 C 60 % 81 % 33 % 1017 hPa 0,0 l/m 0,0 km/h (0 Bft)
09.07.2021 22:50 23,7 C 15,8 C 13,6 C 61 % 81 % 33 % 1017 hPa 0,0 l/m 0,0 km/h (0 Bft)
09.07.2021 22:53 23,7 C 15,8 C 13,6 C 60 % 81 % 33 % 1017 hPa 0,0 l/m 0,0 km/h (0 Bft)
09.07.2021 22:56 23,6 C 15,7 C 13,7 C 61 % 81 % 33 % 1017 hPa 0,0 l/m 0,0 km/h (0 Bft)
09.07.2021 22:59 23,7 C 15,6 C 13,9 C 61 % 81 % 33 % 1017 hPa 0,0 l/m 0,0 km/h (0 Bft)
09.07.2021 23:02 23,7 C 15,6 C 13,8 C 61 % 81 % 33 % 1017 hPa 0,0 l/m 0,0 km/h (0 Bft)
09.07.2021 23:05 23,7 C 15,6 C 13,4 C 61 % 81 % 33 % 1017 hPa 0,0 l/m 0,0 km/h (0 Bft)
09.07.2021 23:08 23,6 C 15,5 C 13,8 C 61 % 81 % 33 % 1017 hPa 0,0 l/m 0,0 km/h (0 Bft)
09.07.2021 23:11 23,6 C 15,5 C 13,8 C 61 % 82 % 33 % 1017 hPa 0,0 l/m 0,0 km/h (0 Bft)
09.07.2021 23:14 23,6 C 15,4 C 13,6 C 61 % 82 % 33 % 1017 hPa 0,0 l/m 0,0 km/h (0 Bft)
09.07.2021 23:17 23,6 C 15,4 C 13,5 C 61 % 82 % 33 % 1017 hPa 0,0 l/m 0,0 km/h (0 Bft)
09.07.2021 23:20 23,6 C 15,3 C 13,6 C 61 % 82 % 33 % 1017 hPa 0,0 l/m 0,0 km/h (0 Bft)
09.07.2021 23:23 23,6 C 15,2 C 13,5 C 61 % 82 % 33 % 1017 hPa 0,0 l/m 0,0 km/h (0 Bft)
09.07.2021 23:26 23,6 C 15,1 C 13,7 C 61 % 82 % 33 % 1017 hPa 0,0 l/m 0,0 km/h (0 Bft)
09.07.2021 23:29 23,6 C 15,2 C 13,3 C 61 % 82 % 33 % 1017 hPa 0,0 l/m 0,0 km/h (0 Bft)
09.07.2021 23:32 23,6 C 15,2 C 13,4 C 61 % 82 % 33 % 1017 hPa 0,0 l/m 0,0 km/h (0 Bft)
09.07.2021 23:35 23,6 C 15,2 C 13,5 C 61 % 82 % 33 % 1017 hPa 0,0 l/m 0,0 km/h (0 Bft)
09.07.2021 23:38 23,6 C 15,1 C 13,1 C 61 % 82 % 33 % 1017 hPa 0,0 l/m 0,0 km/h (0 Bft)
09.07.2021 23:41 23,6 C 15,0 C 13,3 C 61 % 82 % 33 % 1017 hPa 0,0 l/m 0,0 km/h (0 Bft)
09.07.2021 23:44 23,6 C 15,0 C 13,2 C 61 % 82 % 33 % 1017 hPa 0,0 l/m 0,0 km/h (0 Bft)
09.07.2021 23:47 23,6 C 15,0 C 13,2 C 61 % 82 % 33 % 1018 hPa 0,0 l/m 0,0 km/h (0 Bft)
09.07.2021 23:50 23,6 C 15,0 C 13,1 C 61 % 82 % 33 % 1018 hPa 0,0 l/m 0,0 km/h (0 Bft)
09.07.2021 23:53 23,6 C 15,0 C 13,0 C 61 % 82 % 33 % 1018 hPa 0,0 l/m 0,0 km/h (0 Bft)
09.07.2021 23:56 23,6 C 15,0 C 13,0 C 61 % 82 % 33 % 1018 hPa 0,0 l/m 0,0 km/h (0 Bft)
09.07.2021 23:59 23,6 C 15,0 C 13,1 C 61 % 82 % 33 % 1018 hPa 0,0 l/m 0,0 km/h (0 Bft)
_ Min-Zeit 12:53 05:53 23:53 14:47 17:08 - 02:29 - 02:23
Minimum _ 23,4 C 14,5 C 13,0 C 58 % 65 % - 1013 hPa - 0,0 km/h (0 Bft)
_ Max-Zeit 00:32 17:05 14:23 00:32 23:11 00:32 23:47 01:29 14:44
Maximum _ 23,9 C 20,4 C 19,6 C 68 % 82 % 33 % 1018 hPa 1,4 l/m 32,8 km/h
N-NW (5 Bft)
Durchschnitt _ 23,8 C 16,9 C 15,3 C 63 % 76 % #5:45 h 1016 hPa #9,9 l/m 9,7 km/h (2 Bft)